EET,Max TemperatureF,Mean TemperatureF,Min TemperatureF,Max Dew PointF,MeanDew PointF,Min DewpointF,Max Humidity, Mean Humidity, Min Humidity, Max Sea Level PressureIn, Mean Sea Level PressureIn, Min Sea Level PressureIn, Max VisibilityMiles, Mean VisibilityMiles, Min VisibilityMiles, Max Wind SpeedMPH, Mean Wind SpeedMPH, Max Gust SpeedMPH,PrecipitationIn, CloudCover, Events, WindDirDegrees
2013-11-1,71,66,62,52,49,46,68,55,43,30.21,30.16,30.15,6,6,6,20,14,26,0.00,1,,333
2013-11-2,71,62,53,54,50,46,82,64,43,30.15,30.12,30.06,6,6,6,12,5,,0.00,1,,295
2013-11-3,75,64,53,59,54,48,88,72,44,30.12,30.07,30.04,6,6,4,12,2,,0.00,1,,207
2013-11-4,75,64,53,61,56,52,94,74,53,30.06,30.01,29.95,6,6,6,12,3,,0.00,1,,192
2013-11-5,75,68,60,61,57,52,94,67,47,29.92,29.82,29.71,6,6,6,20,6,31,0.00,4,,170
2013-11-6,71,65,59,59,57,55,94,80,57,29.71,29.63,29.59,6,6,3,17,8,34,0.00,6,Rain-Thunderstorm,118
2013-11-7,69,61,53,57,50,41,88,62,40,30.12,29.93,29.68,6,6,6,26,11,39,0.00,5,,345
2013-11-8,73,60,48,54,46,41,82,59,35,30.15,30.12,30.09,,,,6,1,,0.00,,,348
2013-11-9,73,62,50,55,50,46,88,69,44,30.12,30.07,30.04,,,,5,1,,0.00,,,340
2013-11-10,71,60,50,59,55,48,94,78,60,30.01,29.94,29.86,6,6,6,5,1,,0.00,3,,202
2013-11-11,71,64,57,64,60,55,94,85,73,29.98,29.88,29.83,6,6,0,16,4,26,0.00,6,Rain-Thunderstorm,128
2013-11-12,71,66,59,63,60,55,88,79,69,30.06,30.04,29.98,6,6,6,10,4,,0.00,4,Rain-Thunderstorm,93
2013-11-13,71,62,53,57,53,50,94,76,49,30.06,30.02,29.95,6,6,6,8,2,,0.00,6,Rain,1
2013-11-14,69,63,57,57,54,50,100,82,53,29.98,29.90,29.86,6,6,5,13,4,,0.00,7,Rain-Thunderstorm,338
2013-11-15,60,58,57,50,49,41,77,70,55,30.12,30.01,29.89,6,6,6,15,11,25,0.00,5,,329
2013-11-16,62,58,55,50,47,41,82,65,55,30.15,30.13,30.09,6,6,6,16,8,28,0.00,4,,346
2013-11-17,60,56,53,45,42,39,67,58,48,30.15,30.12,30.09,6,6,6,18,13,24,0.00,1,,331
2013-11-18,60,56,53,46,44,43,72,62,55,30.12,30.11,30.09,6,6,6,12,9,,0.00,2,,332
2013-11-19,64,57,50,55,46,43,82,65,49,30.12,30.06,30.01,6,6,6,7,1,,0.00,2,,175
2013-11-20,69,63,57,61,59,54,94,83,73,30.01,29.91,29.86,6,6,2,12,5,,0.00,4,Rain-Thunderstorm,144
2013-11-21,69,61,53,55,53,50,94,74,53,29.89,29.82,29.77,6,6,4,13,2,,0.00,5,Rain,271
2013-11-22,69,60,51,54,50,45,94,74,40,29.83,29.75,29.71,6,6,6,9,1,,0.00,3,Rain,326
2013-11-23,68,60,51,59,52,36,94,79,54,29.83,29.78,29.74,6,6,6,15,4,,0.00,3,Rain,168
2013-11-24,62,56,51,57,54,48,94,85,72,29.80,29.73,29.68,6,6,1,9,2,,0.00,6,Rain-Thunderstorm,334
2013-11-25,66,58,50,50,47,45,88,72,46,29.74,29.72,29.71,6,6,6,9,2,,0.00,5,,332
2013-11-26,66,58,50,54,48,43,88,76,48,29.80,29.73,29.71,6,6,6,6,1,,0.00,3,Rain-Thunderstorm,309
2013-11-27,60,53,46,46,38,30,93,56,31,30.21,30.02,29.80,6,6,6,14,5,,0.00,1,,308
2013-11-28,59,50,42,41,38,34,81,62,39,30.33,30.28,30.24,6,6,6,12,5,,0.00,1,,334
2013-11-29,62,50,39,43,39,34,87,67,42,30.24,30.16,30.09,6,6,6,7,2,,0.00,4,,355
2013-11-30,57,50,44,48,45,39,82,72,63,30.15,30.10,30.06,6,6,6,5,0,,0.00,7,Rain,80